Bookmark and Share
Track history (hours):
 

Nestor

Last reported at 2014-Apr-17 16:33 UTC. Time now 2014-Apr-18 18:18 UTC.
Position N 48°04' W 006°29'.

Length 88 m; draft 5.5 m.

Type: Cargo ship. MMSI: 305620000.

NotesDate/timePositionNaut miles runAvg speedWind from/ knotsBaromVisibWave heightAir tempDewpointWater temp
2014-Apr-17 16:33N 48°04' W 006°29'14 7.1
2014-Apr-17 14:33N 48°16' W 006°19'144 8.3
2014-Apr-16 21:08N 50°15' W 004°14'4 7.7
2014-Apr-16 20:33N 50°19' W 004°10'4 3.3
2014-Apr-16 19:29N 50°22' W 004°08'0 0.0
2014-Apr-16 17:29N 50°22' W 004°08'0 0.0
2014-Apr-16 16:29N 50°22' W 004°08'0 0.0
2014-Apr-16 15:33N 50°22' W 004°08'0 0.0
2014-Apr-16 14:32N 50°22' W 004°08'0 0.0
2014-Apr-16 13:32N 50°22' W 004°08'0 0.0
2014-Apr-16 12:32N 50°22' W 004°08'0 0.0
2014-Apr-16 11:32N 50°22' W 004°08'0 0.0
2014-Apr-16 10:32N 50°22' W 004°08'0 0.0
2014-Apr-16 09:32N 50°22' W 004°08'0 0.0
2014-Apr-16 08:32N 50°22' W 004°08'0 0.0
2014-Apr-16 07:32N 50°22' W 004°08'0 0.0
2014-Apr-16 06:33N 50°22' W 004°08'0 0.0
2014-Apr-16 05:32N 50°22' W 004°08'0 0.0
2014-Apr-16 04:32N 50°22' W 004°08'0 0.0
2014-Apr-16 03:32N 50°22' W 004°08'0 0.0
2014-Apr-16 02:33N 50°22' W 004°08'0 0.0
2014-Apr-16 01:33N 50°22' W 004°08'0 0.0
2014-Apr-16 00:32N 50°22' W 004°08'0 0.0
2014-Apr-15 23:33N 50°22' W 004°08'0 0.0
2014-Apr-15 22:33N 50°22' W 004°08'0 0.0
2014-Apr-15 21:33N 50°22' W 004°08'0 0.0
2014-Apr-15 20:33N 50°22' W 004°08'0 0.0
2014-Apr-15 19:33N 50°22' W 004°08'0 0.0
2014-Apr-15 18:33N 50°22' W 004°08'0 0.0
2014-Apr-15 17:33N 50°22' W 004°08'0 0.0
2014-Apr-15 16:33N 50°22' W 004°08'0 0.0
2014-Apr-15 15:32N 50°22' W 004°08'0 0.0
2014-Apr-15 14:33N 50°22' W 004°08'0 0.0
2014-Apr-15 12:33N 50°22' W 004°08'0 0.0
2014-Apr-15 11:33N 50°22' W 004°08'0 0.0
2014-Apr-15 10:33N 50°22' W 004°08'0 0.0
2014-Apr-15 09:33N 50°22' W 004°08'0 0.0
2014-Apr-15 08:33N 50°22' W 004°08'0 0.0
2014-Apr-15 07:33N 50°22' W 004°08'0 0.0
2014-Apr-15 06:33N 50°22' W 004°08'0 0.0
2014-Apr-15 05:33N 50°22' W 004°08'0 0.0
2014-Apr-15 03:33N 50°22' W 004°08'0 0.0
2014-Apr-15 02:33N 50°22' W 004°08'0 0.0
2014-Apr-15 01:33N 50°22' W 004°08'0 0.0
2014-Apr-15 00:33N 50°22' W 004°08'0 0.0
2014-Apr-14 23:33N 50°22' W 004°08'0 0.0
2014-Apr-14 22:33N 50°22' W 004°08'0 0.0
2014-Apr-14 21:33N 50°22' W 004°08'0 0.0
2014-Apr-14 20:33N 50°22' W 004°08'0 0.0
2014-Apr-14 19:33N 50°22' W 004°08'0 0.0
2014-Apr-14 18:34N 50°22' W 004°08'1 1.1
2014-Apr-14 17:29N 50°21' W 004°09'0 0.0
2014-Apr-14 16:29N 50°21' W 004°09'0 0.0
2014-Apr-14 15:32N 50°21' W 004°09'0 0.0
2014-Apr-14 14:32N 50°21' W 004°09'0 0.0
2014-Apr-14 13:32N 50°21' W 004°09'0 0.0
2014-Apr-14 11:32N 50°21' W 004°09'0 0.1
2014-Apr-14 10:32N 50°21' W 004°09'0 0.0
2014-Apr-14 09:29N 50°21' W 004°09'0 0.0
2014-Apr-14 07:32N 50°21' W 004°09'0 0.0
2014-Apr-14 05:32N 50°21' W 004°09'0 0.0
2014-Apr-13 22:32N 50°21' W 004°09'0 0.0
2014-Apr-13 21:32N 50°21' W 004°09'0 0.0
2014-Apr-13 20:32N 50°21' W 004°09'0 0.0
2014-Apr-13 19:32N 50°21' W 004°09'0 0.0
2014-Apr-13 18:32N 50°21' W 004°09'0 0.0
2014-Apr-13 17:32N 50°21' W 004°09'0 0.0
2014-Apr-13 16:32N 50°21' W 004°09'0 0.0
2014-Apr-13 15:32N 50°21' W 004°09'0 0.0
2014-Apr-13 14:32N 50°21' W 004°09'0 0.0
2014-Apr-13 13:26N 50°21' W 004°09'0 0.0
2014-Apr-13 12:32N 50°21' W 004°09'0 0.0
2014-Apr-13 11:32N 50°21' W 004°09'0 0.1
2014-Apr-13 10:29N 50°21' W 004°09'0 0.0
2014-Apr-13 09:32N 50°21' W 004°09'0 0.0
2014-Apr-13 06:08N 50°21' W 004°09'0 0.0
2014-Apr-13 05:29N 50°21' W 004°09'0 0.0
2014-Apr-13 04:32N 50°21' W 004°09'0 0.0
2014-Apr-13 03:32N 50°21' W 004°09'0 0.1
2014-Apr-13 02:32N 50°21' W 004°09'0 0.0
2014-Apr-13 01:32N 50°21' W 004°09'0 0.0
2014-Apr-13 00:32N 50°21' W 004°09'0 0.0
2014-Apr-12 23:29N 50°21' W 004°09'0 0.0
2014-Apr-12 22:32N 50°21' W 004°09'0 0.0
2014-Apr-12 21:32N 50°21' W 004°09'0 0.0
2014-Apr-12 20:26N 50°21' W 004°09'0 0.0
2014-Apr-12 19:29N 50°21' W 004°09'0 0.0
2014-Apr-12 17:11N 50°21' W 004°09'106 6.0
2014-Apr-11 23:28N 50°51' W 006°49'43 8.6
2014-Apr-11 18:29N 51°22' W 007°37'8 8.8
2014-Apr-11 17:34N 51°27' W 007°46'9 8.8
2014-Apr-11 16:34N 51°34' W 007°56'9 8.7
2014-Apr-11 15:33N 51°40' W 008°06'9 8.7
2014-Apr-11 14:33N 51°46' W 008°15'6 6.4
2014-Apr-11 13:33N 51°52' W 008°20'0 0.0
2014-Apr-11 12:32N 51°52' W 008°20'0 0.0
2014-Apr-11 11:29N 51°52' W 008°20'0 0.0
2014-Apr-11 10:32N 51°52' W 008°20'0 0.0
2014-Apr-11 09:32N 51°52' W 008°20'0 0.0
2014-Apr-11 08:32N 51°52' W 008°20'0 0.0
2014-Apr-11 07:32N 51°52' W 008°20'0 0.0
2014-Apr-11 06:32N 51°52' W 008°20'0 0.0
2014-Apr-11 05:32N 51°52' W 008°20'0 0.0
2014-Apr-11 04:32N 51°52' W 008°20'0 0.0
2014-Apr-11 03:29N 51°52' W 008°20'0 0.0
2014-Apr-11 02:29N 51°52' W 008°20'0 0.0
2014-Apr-11 01:32N 51°52' W 008°20'0 0.0
2014-Apr-11 00:32N 51°52' W 008°20'0 0.0
2014-Apr-10 23:32N 51°52' W 008°20'0 0.0
2014-Apr-10 22:29N 51°52' W 008°20'0 0.0
2014-Apr-10 21:32N 51°52' W 008°20'0 0.0
2014-Apr-10 20:29N 51°52' W 008°20'0 0.0
2014-Apr-10 19:32N 51°52' W 008°20'0 0.0
2014-Apr-10 18:32N 51°52' W 008°20'0 0.0
2014-Apr-10 17:32N 51°52' W 008°20'0 0.0
2014-Apr-10 16:32N 51°52' W 008°20'0 0.0
2014-Apr-10 15:29N 51°52' W 008°20'0 0.0
2014-Apr-10 14:32N 51°52' W 008°20'0 0.0
2014-Apr-10 13:32N 51°52' W 008°20'0 0.0
2014-Apr-10 12:32N 51°52' W 008°20'0 0.0
2014-Apr-10 11:32N 51°52' W 008°20'0 0.0
2014-Apr-10 10:32N 51°52' W 008°20'0 0.0
2014-Apr-10 09:32N 51°52' W 008°20'0 0.0
2014-Apr-10 08:32N 51°52' W 008°20'0 0.0
2014-Apr-10 07:29N 51°52' W 008°20'0 0.0
2014-Apr-10 06:32N 51°52' W 008°20'0 0.0
2014-Apr-10 05:34N 51°52' W 008°20'4 4.4
2014-Apr-10 04:34N 51°48' W 008°16'7 7.1
2014-Apr-10 03:34N 51°41' W 008°16'8 7.5
2014-Apr-10 02:34N 51°34' W 008°17'7 7.3
2014-Apr-10 01:33N 51°27' W 008°20'  

Dump ship's entire track history

sailing weather and tide predictions

Nestor — V2FB3 — position and weather